Location: Oshawa
(43.9000°N, 78.8670°W)
Time: 22:13:37
(UTC-04:00)

Courier 1B - All Passes

Search period start: 27 August 2015 00:00
Search period end: 06 September 2015 00:00
Orbit: 962 x 1209 km, 28.3° (Epoch: 25 August)

Date Brightness Start Highest point End Pass type
(mag) Time Alt. Az. Time Alt. Az. Time Alt. Az.
27 Aug - 05:44:45 10° SSE 05:46:09 11° SSE 05:47:50 10° SE visible
27 Aug - 07:33:48 10° SW 07:39:11 21° SSE 07:44:45 10° ESE daylight
27 Aug - 09:26:28 10° SW 09:32:26 24° S 09:38:27 10° SE daylight
27 Aug - 11:20:51 10° SW 11:25:40 17° SSW 11:30:20 10° SSE daylight
28 Aug - 06:40:45 10° SSW 06:45:34 19° SSE 06:50:37 10° ESE daylight
28 Aug - 08:32:53 10° SW 08:38:46 25° S 08:44:48 10° SE daylight
28 Aug - 10:26:42 10° WSW 10:32:02 20° SSW 10:37:18 10° SSE daylight
29 Aug - 05:48:01 10° SSW 05:52:01 16° SSE 05:56:15 10° SE visible
29 Aug - 07:39:26 10° SW 07:45:07 24° S 07:51:01 10° SE daylight
29 Aug - 09:32:46 10° WSW 09:38:23 22° S 09:44:01 10° SE daylight
29 Aug - 11:28:45 10° SW 11:31:32 12° SSW 11:34:04 10° S daylight
30 Aug - 04:55:51 10° S 04:58:29 12° SSE 05:01:23 10° SE visible
30 Aug - 06:46:08 10° SW 06:51:30 22° S 06:57:07 10° ESE daylight
30 Aug - 08:39:02 10° SW 08:44:44 23° S 08:50:33 10° SE daylight
30 Aug - 10:33:50 10° SW 10:37:56 15° SSW 10:41:53 10° S daylight
31 Aug - 05:53:02 10° SSW 05:57:55 20° SSE 06:03:05 10° ESE visible
31 Aug - 07:45:26 10° SW 07:51:06 24° S 07:56:57 10° SE daylight
31 Aug - 09:39:32 10° SW 09:44:19 18° SSW 09:49:03 10° SSE daylight
01 Sep - 05:00:09 10° SSW 05:04:23 17° SSE 05:08:52 10° SE visible
01 Sep - 06:51:58 10° SW 06:57:29 23° S 07:03:13 10° SE daylight
01 Sep - 08:45:33 10° SW 08:50:41 20° SSW 08:55:53 10° SSE daylight
02 Sep - 04:07:40 10° S 04:10:53 14° SSE 04:14:22 10° SE visible
02 Sep - 05:58:39 10° SW 06:03:53 22° S 06:09:23 10° SE visible
02 Sep - 07:51:46 10° SW 07:57:04 21° S 08:02:31 10° SE daylight
02 Sep - 09:47:21 10° SW 09:50:13 12° SSW 09:52:53 10° S daylight
03 Sep - 03:16:11 10° SSE 03:17:26 11° SSE 03:18:54 10° SE visible
03 Sep - 05:05:28 10° SW 05:10:20 20° S 05:15:27 10° SE visible
03 Sep - 06:58:09 10° SW 07:03:28 22° S 07:08:59 10° SE daylight
03 Sep - 08:52:42 10° SW 08:56:38 15° SSW 09:00:29 10° SSE daylight
04 Sep - 04:12:29 10° SSW 04:16:50 18° SSE 04:21:23 10° SE visible
04 Sep - 06:04:39 10° SW 06:09:53 22° S 06:15:21 10° SE visible
04 Sep - 07:58:33 10° SW 08:03:03 17° SSW 08:07:33 10° SSE daylight
05 Sep - 03:19:46 10° SSW 03:23:21 15° SSE 03:27:09 10° SE visible
05 Sep - 05:11:17 10° SW 05:16:20 22° S 05:21:37 10° SE visible
05 Sep - 07:04:41 10° SW 07:09:28 19° SSW 07:14:20 10° SSE daylight
